User: anonymous   Login
Location: NJAA Observatory
(40.6819°N, 74.8979°W)
Time: 07:55:48
(UTC-04:00)
Language:

Landsat 5 - Orbit

View from above orbital plane
View from above orbital plane
View from above satellite
View from above satellite

Ground track
Ground track

The orbit data is extracted from the following two-line orbital elements,

1 14780U 84021A   15086.20302528  .00002319  00000-0  22810-3 0  9998
2 14780 098.0310 173.2095 0092769 325.0636 090.8558 14.90000503654741
Epoch (UTC): 27 March 2015 04:52:21
Eccentricity: 0.0092769
inclination: 98.0310°
perigee height: 533 km
apogee height: 662 km
right ascension of ascending node: 173.2095°
argument of perigee: 325.0636°
revolutions per day: 14.90000503
mean anomaly at epoch: 90.8558°
orbit number at epoch: 65474

The dashed part of the orbit path shows where the satellite is in the earth's shadow,  

DLR